Location: Vancouver
(49.2500°N, 123.1330°W)
Time: 03:05:22
(UTC-07:00)

Oscar 11 - Visible Passes

Search period start: 30 September 2016 00:00
Search period end: 10 October 2016 00:00
Orbit: 615 x 626 km, 97.7° (Epoch: 29 September)

Date Brightness Start Highest point End Pass type
(mag) Time Alt. Az. Time Alt. Az. Time Alt. Az.
30 Sep 8.8 20:01:40 14° ENE 20:02:26 15° ENE 20:04:53 10° NNE visible
30 Sep 7.6 21:38:51 56° NNW 21:38:51 56° NNW 21:42:23 10° NNW visible
01 Oct 8.4 20:19:24 21° ENE 20:19:39 21° ENE 20:22:52 10° NNE visible
01 Oct 8.3 21:56:36 40° NW 21:56:36 40° NW 21:59:43 10° NNW visible
02 Oct 8.1 20:37:09 28° ENE 20:37:09 28° ENE 20:40:37 10° N visible
02 Oct 9.0 22:14:20 28° WNW 22:14:20 28° WNW 22:16:56 10° NNW visible
03 Oct 7.8 20:54:54 37° NE 20:54:54 37° NE 20:58:16 10° N visible
03 Oct 9.6 22:32:05 19° WNW 22:32:05 19° WNW 22:34:02 10° NW visible
04 Oct 7.8 21:12:39 44° NNE 21:12:39 44° NNE 21:15:50 10° N visible
04 Oct 10.0 22:49:49 14° WNW 22:49:49 14° WNW 22:50:52 10° NW visible
05 Oct 9.0 19:53:12 13° ENE 19:53:27 13° ENE 19:55:21 10° NNE visible
05 Oct 8.0 21:30:23 42° NNW 21:30:23 42° NNW 21:33:17 10° NNW visible
06 Oct 8.7 20:10:56 18° NE 20:10:56 18° NE 20:13:32 10° NNE visible
06 Oct 8.6 21:48:07 33° NNW 21:48:07 33° NNW 21:50:39 10° NNW visible
07 Oct 8.5 20:28:41 23° NE 20:28:41 23° NE 20:31:22 10° N visible
07 Oct 9.2 22:05:52 25° NW 22:05:52 25° NW 22:07:57 10° NNW visible
08 Oct 8.3 20:46:25 28° NNE 20:46:25 28° NNE 20:49:04 10° N visible
08 Oct 9.7 22:23:36 18° NW 22:23:36 18° NW 22:25:06 10° NW visible
09 Oct 8.3 21:04:09 31° NNE 21:04:09 31° NNE 21:06:39 10° N visible
09 Oct 10.1 22:41:21 13° NW 22:41:21 13° NW 22:42:05 10° NW visible
